Terminal Aerodrome Forecast
Issued by NWS St Louis, MO

Home | Current Version | Previous Version | Text Only | Print | Product List | Glossary On
Versions: 1 2 3 4 5 6 7 8 9 10 11 12 13 14 15 16 17 18 19 20 21 22 23 24 25
000
FTUS43 KLSX 102332
TAFSTL
TAF
KSTL 102332Z 1100/1206 30007KT P6SM SCT250
     FM111400 19006KT P6SM SCT150
     FM111600 22012KT P6SM SCT150
     FM111800 25013G23KT P6SM SCT150
     FM112100 29016G26KT P6SM SCT250
     FM120100 30012G21KT P6SM BKN030=

USA.gov is the U.S. government's official web portal to all federal, state and local government web resources and services.